Location: Torrente Calaggio
(41.1333°N, 15.4500°E)
Time: 04:34:02
(UTC+00:00)

Daily predictions for brighter satellites

Satellite Brightness Start Highest point End
(mag) Time Altitude Azimuth Time Altitude Azimuth Time Altitude Azimuth
Cosmos 2221 2.5 00:01:17 10° N 00:05:27 75° WNW 00:05:27 75° WNW
Cosmos 2151 3.2 00:11:06 57° ESE 00:11:16 58° E 00:15:29 10° NNE
Cosmos 2322 Rocket 2.2 00:05:47 10° NNW 00:11:21 58° WSW 00:11:58 55° SW
Cosmos 2333 Rocket 2.8 00:06:53 10° NNW 00:12:33 55° ENE 00:16:06 23° SE
ATLAS 5 CENTAUR R/B 3.8 00:11:50 11° WNW 00:13:48 15° NW 00:16:14 10° N
Cosmos 1782 3.3 00:10:32 10° N 00:14:26 50° E 00:14:39 50° E
Cosmos 468 Rocket 4.4 00:18:43 45° SE 00:19:48 54° ESE 00:24:59 10° NNE
Geosat 3.9 00:24:25 58° SW 00:24:53 61° WSW 00:29:52 10° NNW
MOS 1 Rocket 4.2 00:27:41 27° SE 00:30:10 50° ENE 00:35:12 10° N
MOZ.5/SAFIR/RUBIN 5/SL-8 3.9 00:39:14 51° WSW 00:39:39 53° W 00:44:18 10° NNW
SL-24 DEB 4.1 00:39:40 60° S 00:40:28 82° W 00:45:06 10° N
BREEZE-M DEB (TANK) 2.8 00:33:45 10° WNW 00:40:54 84° SSW 00:41:34 56° SE
ADEOS II 2.8 00:36:22 10° NNE 00:41:24 44° E 00:43:34 29° SSE
Cosmos 1898 Rocket 4.3 00:36:34 10° N 00:41:36 49° ENE 00:45:43 15° SE
Cosmos 2333 4.1 00:36:51 10° NNW 00:42:40 84° WSW 00:45:23 33° SSE
NPP 3.7 00:38:00 10° NNE 00:43:24 73° ESE 00:45:18 41° S
SL-4 R/B 2.4 00:43:04 43° WNW 00:43:38 47° NNW 00:47:22 10° NE
Cosmos 2227 Rocket 4.5 00:42:55 10° SE 00:45:42 14° E 00:48:30 10° ENE
Cosmos 1812 2.5 00:43:35 10° N 00:47:25 82° W 00:47:33 79° SW
SL-16 R/B 2.7 00:43:21 23° SSE 00:47:31 75° ENE 00:53:47 10° N
SL-27 R/B 3.3 00:48:57 38° NW 00:48:57 38° NW 00:51:43 10° N
AQUA 4.1 00:44:32 10° NNE 00:49:15 61° E 00:50:48 40° SSE
NOSS 3-2 (A) 3.4 00:48:21 40° S 00:50:07 59° ESE 00:56:05 10° NE
Cosmos 2360 Rocket 2.6 00:45:22 10° NW 00:50:42 43° WSW 00:51:35 40° SW
COSMOS 2487 3.3 00:51:18 35° NW 00:51:18 35° NW 00:53:39 10° N
Cosmos 1933 3.9 00:47:09 10° NNW 00:50:45 41° W 00:50:45 41° W
Cosmos 540 Rocket 3.5 00:49:45 44° S 00:51:22 72° ESE 00:56:29 10° NNE
OAO 3 Rocket 4.4 00:52:15 28° SSE 00:52:15 28° SSE 00:55:44 10° ESE
CZ-4 R/B 3.8 00:49:45 10° N 00:54:37 78° WNW 00:56:05 46° SSW
Cosmos 1937 Rocket 4.3 00:52:44 10° N 00:57:51 49° ENE 01:02:52 10° SE
COSMOS 2428 3.0 00:54:23 10° NNW 01:00:06 67° ENE 01:05:46 10° SSE
Cosmos 2237 Rocket 4.0 01:06:05 10° N 01:11:07 31° ENE 01:16:04 10° ESE
Cosmos 1340 3.3 01:08:00 10° N 01:11:38 51° ENE 01:13:32 25° SE
SL-23 DEB 4.4 01:10:44 31° WNW 01:11:39 40° NNW 01:14:58 10° NE
EO 1 Del DPAF 3.9 01:10:39 10° NNE 01:13:57 40° E 01:15:05 30° SE
SL-16 R/B 4.3 01:14:11 10° W 01:14:57 11° W 01:14:57 11° W
Cosmos 2297 Rocket 3.2 01:12:13 20° SSE 01:15:36 39° ESE 01:20:49 10° NE
IDEFIX/ARIANE 42P 2.5 01:12:17 10° NNE 01:17:32 82° ESE 01:20:12 30° S
USA 276 1.8 01:15:09 10° WNW 01:18:09 88° NE 01:21:09 10° ESE
Cosmos 2322 3.6 01:12:48 10° NNW 01:18:25 66° WSW 01:22:08 22° S
CENTAUR R/B 2.4 01:16:48 32° SSW 01:19:39 87° ESE 01:26:30 10° NE
Meteor 1-28 Rocket 3.1 01:18:15 36° SSE 01:19:39 84° ENE 01:23:21 10° N
ISS -3.6 01:22:08 47° W 01:22:53 65° NW 01:26:15 10° NE
Meteor 1-10 Rocket 4.4 01:21:43 10° N 01:27:39 80° E 01:33:01 12° SSE
Cosmos 1328 Rocket 4.0 01:25:27 10° N 01:29:50 61° E 01:33:32 14° SSE
Cosmos 1459 Rocket 4.1 01:24:52 10° NNW 01:30:43 53° W 01:34:04 25° SSW
Cosmos 2219 Rocket 2.5 01:25:42 10° NW 01:31:06 47° WSW 01:34:15 24° SSW
Meteor 2-6 Rocket 4.3 01:25:26 10° NNW 01:31:19 67° W 01:35:11 21° S
Helios 1A 3.0 01:28:24 19° SSE 01:31:25 80° ENE 01:35:37 10° N
CZ-2D R/B 3.0 01:27:48 10° N 01:32:29 35° WNW 01:34:54 23° WSW
USA 290 2.4 01:30:55 10° NNW 01:34:04 49° WSW 01:34:22 47° SW
NOSS 3-2 (C) 3.4 01:31:15 26° SSW 01:34:19 66° ESE 01:40:24 10° NE
Cosmos 2100 Rocket 4.4 01:29:07 10° NNW 01:35:09 45° W 01:38:37 24° SSW
Cosmos 1151 Rocket 3.0 01:31:25 10° NNW 01:35:46 69° W 01:38:10 26° S
NOSS 0 Rocket 4.1 01:30:36 10° NNW 01:36:48 78° ENE 01:42:57 10° SSE
SAR-Lupe-2 3.8 01:33:28 10° N 01:36:59 53° WNW 01:38:07 36° SW
Cosmos 1766 Rocket 3.5 01:37:15 29° SSW 01:39:24 74° W 01:43:46 10° N
Resurs 1-4 Rocket 3.3 01:35:49 10° N 01:40:21 29° WNW 01:43:01 19° WSW
COSMOS 2441 4.3 01:36:06 10° NNE 01:40:55 83° ESE 01:44:04 22° S
Cosmos 1862 4.5 01:41:29 24° WSW 01:42:30 27° WNW 01:45:54 10° NNW
Cosmos 2123 Rocket 4.1 01:39:25 24° SSW 01:43:17 60° W 01:49:32 10° N
Cosmos 1725 Rocket 4.0 01:38:53 10° NNW 01:45:02 70° W 01:50:15 15° S
Cosmos 841 Rocket 3.8 01:45:50 24° SW 01:48:41 52° WNW 01:53:44 10° N
Cosmos 858 Rocket 4.5 01:44:39 10° NNW 01:49:50 64° WSW 01:54:57 10° S
Cosmos 1400 Rocket 3.6 01:47:37 14° SSE 01:50:48 46° E 01:54:38 10° NNE
Cosmos 2233 Rocket 4.0 01:44:57 10° N 01:51:08 86° E 01:57:17 10° S
Cosmos 1500 4.2 01:48:41 12° SSE 01:51:56 43° E 01:55:31 10° NNE
USA 238 DEB 3.6 01:48:13 21° SSW 01:52:42 87° ESE 01:59:30 10° NE
USA 238 3.6 01:48:21 21° SSW 01:52:50 86° SE 01:59:38 10° NE
Okean 3 Rocket 3.7 01:51:54 23° SSW 01:54:38 64° W 01:59:08 10° N
ALOS 3.6 01:51:58 10° NNE 01:56:15 35° E 02:00:30 10° SSE
Cosmos 2333 Rocket 3.5 01:52:09 10° NW 01:56:22 21° W 01:58:01 19° WSW
Cosmos 372 Rocket 3.9 01:51:15 10° NNW 01:56:28 69° WSW 02:01:36 10° S
Cosmos 2016 Rocket 4.3 01:56:50 10° NNW 02:02:34 44° W 02:07:16 15° SSW
Cosmos 1408 Rocket 3.5 02:01:02 15° S 02:04:36 87° E 02:08:56 10° N
Cosmos 2061 Rocket 4.3 01:58:34 10° NNW 02:04:47 52° W 02:10:34 12° SSW
IRS-1D 3.5 01:59:48 10° N 02:04:48 68° WNW 02:08:39 16° SSW
H-2A R/B 3.7 02:03:10 15° SSW 02:05:18 18° SSE 02:13:17 10° SE
Cosmos 1980 3.7 02:06:35 10° NNW 02:12:16 83° WSW 02:17:56 10° SSE
Cosmos 1184 Rocket 4.4 02:10:48 10° NW 02:12:45 16° W 02:13:02 16° W
USA 215 3.7 02:09:42 10° NE 02:16:05 53° SE 02:22:09 11° SSW
Meteor 1-25 Rocket 4.3 02:12:49 10° S 02:18:40 89° WNW 02:24:32 10° N
ARIANE 5 R/B 3.6 02:15:13 10° NNE 02:20:00 43° E 02:24:48 10° S
Cosmos 1356 Rocket 4.4 02:17:56 16° SW 02:20:20 29° WNW 02:23:51 10° NNW
ADEOS II 3.5 02:16:39 10° NNW 02:20:47 24° WNW 02:24:30 12° WSW
BREEZE-M DEB (TANK) 4.0 02:19:52 10° NW 02:21:56 26° NNE 02:23:58 10° E
SL-4 R/B 4.3 02:21:02 10° NW 02:23:51 19° N 02:26:48 10° NE
SL-16 R/B 3.7 02:20:49 10° N 02:26:12 41° ENE 02:31:32 10° SE
SWAS 4.4 02:24:30 13° SSW 02:28:16 80° WNW 02:32:34 10° NNE
Cosmos 2227 Rocket 2.2 02:23:40 12° SSW 02:28:58 78° WNW 02:34:41 10° NNE
SL-16 R/B 4.0 02:28:26 12° SW 02:31:40 17° W 02:35:36 10° NW
FENGYUN 3A 3.7 02:27:35 10° NNE 02:33:02 82° WNW 02:38:28 10° SSW
Cosmos 2082 4.4 02:28:00 10° S 02:33:27 51° ESE 02:38:54 10° NNE
Cosmos 1500 Rocket 3.6 02:29:13 10° SSW 02:33:37 76° W 02:38:06 10° N
OAO 3 Rocket 3.8 02:30:01 11° WSW 02:34:30 41° S 02:39:07 10° ESE
CBERS-1 4.3 02:33:37 10° N 02:38:37 53° WNW 02:43:35 10° SSW
Cosmos 1346 Rocket 3.0 02:34:51 10° N 02:38:44 71° E 02:42:36 10° SSE
COSMOS 2428 4.2 02:40:11 10° WNW 02:43:42 17° W 02:47:13 10° SW
Cosmos 1891 Rocket 4.5 02:39:12 10° N 02:45:19 85° W 02:51:30 10° S
ATLAS CENTAUR R/B 4.1 02:43:24 10° SSE 02:46:17 16° ESE 02:49:16 10° ENE
Meteor 1-27 Rocket 4.5 02:42:27 10° NNW 02:47:27 33° W 02:52:20 10° SSW
DELTA 2 DEB (DPAF) 4.3 02:44:26 10° SSE 02:48:49 78° ENE 02:53:14 10° N
Cosmos 2263 Rocket 3.6 02:45:04 10° SSE 02:50:05 35° ESE 02:55:06 10° NE
Cosmos 2219 3.5 02:46:47 10° SW 02:52:21 58° WNW 02:57:54 10° NNE
Okean 1 3.4 02:49:41 10° NNW 02:53:34 56° W 02:57:25 10° S
PAYLOAD A 4.2 02:49:15 10° N 02:54:33 69° WNW 02:59:55 10° SSW
Cosmos 2237 Rocket 2.7 02:50:00 10° NW 02:55:12 39° WSW 03:00:22 10° S
COSMOS 2455 3.1 02:52:17 10° NW 02:58:02 48° WSW 03:03:45 10° S
Cosmos 2297 Rocket 3.3 02:54:45 10° WSW 02:59:42 31° WNW 03:04:40 10° N
Helios 1B rocket 3.3 02:56:29 10° N 03:00:13 35° WNW 03:03:57 10° SW
